EDT,Max TemperatureF,Mean TemperatureF,Min TemperatureF,Max Dew PointF,MeanDew PointF,Min DewpointF,Max Humidity, Mean Humidity, Min Humidity, Max Sea Level PressureIn, Mean Sea Level PressureIn, Min Sea Level PressureIn, Max VisibilityMiles, Mean VisibilityMiles, Min VisibilityMiles, Max Wind SpeedMPH, Mean Wind SpeedMPH, Max Gust SpeedMPH,PrecipitationIn, CloudCover, Events, WindDirDegrees
2014-7-1,89,84,80,84,76,70,100,77,52,30.00,29.95,29.90,10,10,5,10,2,18,0.02,3,Rain-Thunderstorm,26
2014-7-2,89,84,77,86,73,68,100,64,49,29.97,29.94,29.90,10,9,1,18,2,45,1.37,2,Rain-Thunderstorm,56
2014-7-3,87,81,75,84,77,68,100,80,58,30.05,29.99,29.93,10,10,5,18,5,22,0.04,1,Rain-Thunderstorm,255
2014-7-4,87,81,75,77,66,61,100,59,43,30.12,30.08,30.03,10,10,10,10,4,,0.00,1,Rain,300
2014-7-5,91,81,71,73,61,46,100,49,21,30.14,30.10,30.05,10,8,2,9,2,16,0.00,0,,186
2014-7-6,89,81,71,72,64,61,94,55,38,30.11,30.07,30.01,10,9,5,10,3,,0.00,1,,203
2014-7-7,89,81,73,73,66,61,100,58,40,30.12,30.07,30.03,10,10,5,14,3,17,0.00,1,,227
2014-7-8,89,84,78,79,66,63,100,55,40,30.16,30.10,30.05,10,9,4,12,3,18,0.00,1,Thunderstorm,232
2014-7-9,89,84,78,81,70,63,100,65,40,30.13,30.09,30.05,10,9,2,15,3,18,0.00,1,Thunderstorm,248
2014-7-10,87,84,78,82,77,72,100,87,58,30.15,30.10,30.05,10,9,1,15,3,22,0.00,2,Rain-Thunderstorm,225
2014-7-11,87,80,73,81,71,66,100,71,49,30.16,30.12,30.09,10,9,2,10,2,,0.21,1,Rain-Thunderstorm,182
2014-7-12,89,80,71,72,70,68,100,83,49,30.18,30.14,30.11,10,10,5,15,4,18,0.00,1,Rain-Thunderstorm,144
2014-7-13,89,79,69,73,71,70,100,82,52,30.16,30.11,30.05,10,8,0,9,2,9,0.01,3,Fog-Rain-Thunderstorm,7
2014-7-14,89,80,71,73,71,66,100,77,49,30.11,30.06,30.01,10,10,4,13,2,17,0.00,1,Thunderstorm,237
2014-7-15,86,78,71,77,72,68,100,90,66,30.02,29.97,29.91,10,8,1,17,2,40,0.82,2,Rain-Thunderstorm,197
2014-7-16,84,78,71,75,72,70,100,88,66,29.95,29.91,29.88,10,8,3,15,3,20,0.44,4,Rain-Thunderstorm,249
2014-7-17,87,78,69,72,67,59,100,73,38,30.02,29.98,29.92,10,9,2,8,1,,0.00,0,,322
2014-7-18,87,78,68,72,68,64,100,76,46,30.09,30.06,30.00,10,10,4,9,2,,0.00,1,,241
2014-7-19,84,78,71,75,72,70,100,88,66,30.10,30.07,30.01,10,10,5,8,3,,0.05,2,Rain-Thunderstorm,156
2014-7-20,86,78,69,75,72,70,100,86,66,30.10,30.05,30.02,10,8,1,15,4,22,0.00,1,Rain,220
2014-7-21,77,74,71,75,71,70,100,92,78,30.12,30.06,30.01,10,9,3,8,2,,0.17,2,Rain-Thunderstorm,247
2014-7-22,87,78,68,73,70,68,100,80,55,30.09,30.06,30.02,10,9,7,9,2,,0.00,2,,215
2014-7-23,87,78,69,75,71,66,100,78,49,30.10,30.06,30.00,10,8,1,13,2,17,0.00,0,,234
2014-7-24,87,78,69,75,71,68,100,79,52,30.06,30.02,29.98,10,9,1,14,3,20,0.00,1,,238
2014-7-25,87,79,71,77,73,70,100,80,55,30.08,30.04,30.00,10,9,3,14,3,20,0.00,1,Thunderstorm,242
2014-7-26,87,80,73,75,74,72,100,83,58,30.09,30.05,30.02,10,10,4,15,3,18,0.00,1,Rain-Thunderstorm,242
2014-7-27,89,81,73,77,75,72,100,82,55,30.10,30.05,30.01,10,8,0,14,4,9,0.00,1,Fog,247
2014-7-28,89,81,73,79,75,70,94,82,66,30.04,29.99,29.93,10,10,2,14,6,21,0.26,3,Rain-Thunderstorm,254
2014-7-29,89,79,69,72,67,61,100,71,43,29.98,29.95,29.91,10,10,0,10,3,,0.00,2,,326
2014-7-30,87,76,66,68,63,57,88,65,37,30.02,29.99,29.96,10,10,5,10,2,16,0.00,1,,329
2014-7-31,89,76,64,68,64,57,100,69,35,30.02,29.99,29.96,10,9,0,12,1,17,0.00,1,Fog,286